Keahole Point, HI

3:58 AM HST on July 25, 2017 (GMT -1000)
Kona International At Keahole

Weather History for PHKO - August, 2013

Change the Weather History Date:

Tuesday, August 27, 2013

  Actual Average Record
Temperature  
Mean Temperature 80 °F -  
Max Temperature 84 °F 84 °F 95 °F (1989)
Min Temperature 75 °F 73 °F 70 °F (1989)
Cooling Degree Days 14    
Growing Degree Days 30 (Base 50)    
Moisture  
Dew Point 67 °F    
Average Humidity 63    
Maximum Humidity 71    
Minimum Humidity 56    
Precipitation  
Precipitation 0.01 in - - ()
Sea Level Pressure  
Sea Level Pressure 30.01 in    
Wind  
Wind Speed 7 mph (SSE)    
Max Wind Speed 13 mph    
Max Gust Speed -    
Visibility 10 miles    
Events Rain    
Averages and records for this station are not official NWS values.
T = Trace of Precipitation, MM = Missing Value Source: NWS Daily Summary

Daily Weather History Graph

Daily Weather History Graph

Search for Another Location

Airport or City:

Trip Planner

Search our weather history database for the weather conditions in past years. The results will help you decide how hot, cold, wet, or windy it might be!

Date:

Astronomy

Aug. 27, 2013 Rise Set
Actual Time 6:07 AM HST 6:43 PM HST
Civil Twilight 5:45 AM HST 7:05 PM HST
Nautical Twilight 5:19 AM HST 7:31 PM HST
Astronomical Twilight 4:52 AM HST 7:58 PM HST
Moon 11:44 PM HST (8/27) 12:16 PM HST (8/27)
Length of Visible Light 13h 20m
Length of Day
12h 35m
Waning Gibbous, 55% of the Moon is Illuminated
Aug 27
Waning Gibbous
Aug 27
Last Quarter
Sep 5
New
Sep 12
First Quarter
Sep 19
Full

Hourly Weather History & Observations

Time (HST) Temp. Heat Index Dew Point Humidity Pressure Visibility Wind Dir Wind Speed Gust Speed Precip Events Conditions
12:53 AM 78.1 °F - 66.0 °F 66% 30.03 in 10.0 mi ESE 8.1 mph - N/A   Clear
1:53 AM 79.0 °F - 64.9 °F 62% 30.02 in 10.0 mi ESE 4.6 mph - N/A   Scattered Clouds
2:53 AM 79.0 °F - 64.9 °F 62% 30.02 in 10.0 mi Calm Calm - N/A   Mostly Cloudy
3:53 AM 78.1 °F - 64.0 °F 62% 30.02 in 10.0 mi North 5.8 mph - N/A   Mostly Cloudy
4:53 AM 78.1 °F - 63.0 °F 60% 30.03 in 10.0 mi NE 3.5 mph - N/A   Mostly Cloudy
5:53 AM 77.0 °F - 64.9 °F 66% 30.03 in 10.0 mi ESE 6.9 mph - N/A   Scattered Clouds
6:53 AM 78.1 °F - 66.9 °F 68% 30.04 in 10.0 mi SE 4.6 mph - N/A   Mostly Cloudy
7:53 AM 81.0 °F 83.3 °F 66.9 °F 62% 30.05 in 10.0 mi SSE 10.4 mph - N/A   Mostly Cloudy
8:53 AM 82.0 °F 84.9 °F 68.0 °F 62% 30.05 in 10.0 mi South 11.5 mph - N/A   Scattered Clouds
9:53 AM 82.9 °F 86.5 °F 69.1 °F 63% 30.06 in 10.0 mi SSW 11.5 mph - N/A   Clear
10:53 AM 84.9 °F 88.8 °F 69.1 °F 59% 30.05 in 10.0 mi SSW 11.5 mph - N/A   Partly Cloudy
11:53 AM 84.0 °F 87.8 °F 69.1 °F 61% 30.03 in 10.0 mi South 11.5 mph - N/A   Overcast
12:53 PM 84.0 °F 87.8 °F 69.1 °F 61% 30.01 in 10.0 mi SSE 12.7 mph - N/A   Mostly Cloudy
1:53 PM 84.0 °F 87.0 °F 68.0 °F 58% 29.99 in 10.0 mi South 11.5 mph - N/A   Overcast
2:53 PM 84.0 °F 86.5 °F 66.9 °F 56% 29.98 in 10.0 mi South 11.5 mph - N/A   Overcast
3:53 PM 84.0 °F 86.5 °F 66.9 °F 56% 29.96 in 10.0 mi South 11.5 mph - N/A   Overcast
4:53 PM 82.9 °F 85.4 °F 66.9 °F 58% 29.97 in 10.0 mi SSW 10.4 mph - N/A   Overcast
5:53 PM 82.0 °F 84.5 °F 66.9 °F 60% 29.97 in 10.0 mi SSW 5.8 mph - N/A   Overcast
6:53 PM 81.0 °F 83.8 °F 68.0 °F 65% 29.98 in 10.0 mi Calm Calm - N/A   Overcast
7:53 PM 81.0 °F 83.8 °F 68.0 °F 65% 30.00 in 10.0 mi North 9.2 mph - N/A   Overcast
8:05 PM 78.8 °F - 66.2 °F 65% 30.00 in 10.0 mi Calm Calm - 0.00 in Rain Light Rain
8:53 PM 77.0 °F - 64.0 °F 64% 30.01 in 10.0 mi NE 9.2 mph - 0.01 in   Clear
9:53 PM 77.0 °F - 66.9 °F 71% 30.01 in 10.0 mi SE 8.1 mph - N/A   Clear
10:53 PM 75.9 °F - 66.0 °F 71% 30.02 in 10.0 mi Variable 5.8 mph - N/A   Clear
11:53 PM 78.1 °F - 64.9 °F 64% 30.01 in 10.0 mi Calm Calm - N/A   Clear